EHI
0 0 0 0 0 0 0 0 0 0 0 0 0 0 0 0 0 0 0 0 0 0 0 0 0 0 0 0 0 0 0 0 0 0 0 0 0 0 0 0 0 0 0 0
0 0 0 0 0 0 0 0 0 0 0 0 0 0 0 0 0 0 0 0 0 0 0 0 0 0 0 0 0 0 0 0 0 0 0 0 0 0 0 0 0 0 0 0
0 0 0 0 0 0 0 0 0 0 0 0 0 0 0 0 0 0 0 0 0 0 0 0 0 0 0 0 0 0 0 0 0 0 0 0 0 0 0 0 0 0 0 0
0 0 0 0 0 0 0 0 0 0 0 0 0 0 0 0 0 0 0 0 0 0 0 0 0 0 0 0 0 0 0 0 0 0 0 0 0 0 0 0 0 0 0 0
0 0 0 0 0 0 0 0 0 0 0 0 0 0 0 0 0 0 0 0 0 0 0 0 0 0 0 0 0 0 0 0 0 0 0 0 0 0 0 0 0 0 0 0
0 0 0 0 0 0 0 0 0 0 0 0 0 0 0 0 0 0 0 0 0 0 0 0 0 0 0 0 0 0 0 0 0 0 0 0 0 0 0 0 0 0 0 0
0 0 0 0 0 0 0 0 0 0 0 0 0 0 0 0 0 0 0 0 0 0 0 0 0 0 0 0 0 0 0 0 0 0 0 0 0 0 0 0 0 0 0 0
0 0 0 0 0 0 0 0 0 0 0 0 0 0 0 0 0 0 0 0 0 0 0 0 0 0 0 0 0 0 0 0 0 0 0 0 0 0 0 0 0 0 0 0
0 0 0 0 0 0 0 0 0 0 0 0 0 0 0 0 0 0 0 0 0 0 0 0 0 0 0 0 0 0 0 0 0 0 0 0 0 0 0 0 0 0 0 0
0 0 0 0 0 0 0 0 0 0 0 0 0 0 0 0 0 0 0 0 0 0 0 0 0 0 0 0 0 0 0 0 0 0 0 0 0 0 0 0 0 0 0 0
0 0 0 0 0 0 0 0 0 0 0 0 0 0 0 0 0 0 0 0 0 0 0 0 0 0 0 0 0 0 0 0 0 0 0 0 0 0 0 0 0 0 0 0
0 0 0 0 0 0 0 0 0 0 0 0 0 0 0 0 0 0 0 0 0 0 0 0 0 0 0 0 0 0 0 0 0 0 0 0 0 0 0 0 0 0 0 0
0 0 0 0 0 0 0 0 0 0 0 0 0 0 0 0 0 0 0 0 0 0 0 0 0 0 0 0 0 0 0 0 0 0 0 0 0 0 0 0 0 0 0 0
0 0 0 0 0 0 0 0 0 0 0 0 0 0 0 0 0 0 0 0 0 0 0 0 0 0 0 0 0 0 0 0 0 0 0 0 0 0 0 0 0 0 0 0
0 0 0 0 0 0 0 0 0 0 0 0 0 0 0 0 0 0 0 0 0 0 0 0 0 0 0 0 0 0 0 0 0 0 0 0 0 0 0 0 0 0 0 0
0 0 0 0 0 0 0 0 0 0 0 0 0 0 0 0 0 0 0 0 0 0 0 0 0 0 0 0 0 0 0 0 0 0 0 0 0 0 0 0 0 0 0 0
0 0 0 0 0 0 0 0 0 0 0 0 0 0 0 0 0 0 0 0 0 0 0 0 0 0 0 0 0 0 0 0 0 0 0 0 0 0 0 0 0 0 0 0
0 0 0 0 0 0 0 0 0 0 0 0 0 0 0 0 0 0 0 0 0 0 0 0 0 0 0 0 0 0 0 0 0 0 0 0 0 0 0 0 0 0 0 0
0 0 0 0 0 0 0 0 0 0 0 0 0 0 0 0 0 0 0 0 0 0 0 0 0 0 0 0 0 0 0 0 0 0 0 0 0 0 0 0 0 0 0 0
0 0 0 0 0 0 0 0 0 0 0 0 0 0 0 0 0 0 0 0 0 0 0 0 0 0 0 0 0 0 0 0 0 0 0 0 0 0 0 0 0 0 0 0
0 0 0 0 0 0 0 0 0 0 0 0 0 0 0 0 0 0 0 0 0 0 0 0 0 0 0 0 0 0 0 0 0 0 0 0 0 0 0 0 0 0 0 0
0 0 0 0 0 0 0 0 0 0 0 0 0 0 0 0 0 0 0 0 0 0 0 0 0 0 0 0 0 0 0 0 0 0 0 0 0 0 0 0 0 0 0 0
0 0 0 0 0 0 0 0 0 0 0 0 0 0 0 0 0 0 0 0 0 0 0 0 0 0 0 0 0 0 0 0 0 0 0 0 0 0 0 0 0 0 0 0
0 0 0 0 0 0 0 0 0 0 0 0 0 0 0 0 0 0 0 0 0 0 0 0 0 0 0 0 0 0 0 0 0 0 0 0 0 0 0 0 0 0 0 0
0 0 0 0 0 0 0 0 0 0 0 0 0 0 0 0 0 0 0 0 0 0 0 0 0 0 0 0 0 0 0 0 0 0 0 0 0 0 0 0 0 0 0 0
0 0 0 0 0 0 0 0 0 0 0 0 0 0 0 0 0 0 0 0 0 0 0 0 0 0 0 0 0 0 0 0 0 0 0 0 0 0 0 0 0 0 0 0
0 0 0 0 0 0 0 0 0 0 0 0 0 0 0 0 0 0 0 0 0 0 0 0 0 0 0 0 0 0 0 0 0 0 0 0 0 0 0 0 0 0 0 0
Wind_Speed
9 6 7 10 10 11 11 7 5 3 6 8 6 5 7 8 8 9 10 10 10 8 7 7 7 7 7 7 7 7 6 6 5 3 3 3 3 4 5 6 8 7 7 8
7 5 5 8 8 7 7 6 5 6 7 6 5 5 7 10 11 12 12 12 10 9 8 7 7 6 6 7 7 7 7 7 7 7 7 6 6 6 7 8 8 9 9 10
5 6 3 3 5 4 5 5 5 7 5 5 7 8 8 9 10 11 11 10 9 8 8 7 6 6 6 6 6 6 6 7 7 7 7 7 7 7 6 7 8 8 8 8
3 6 0 7 7 5 2 2 2 2 3 3 3 5 6 6 7 9 10 9 8 7 7 8 7 6 6 6 7 7 7 6 6 6 6 6 6 6 6 5 6 6 6 5
2 2 5 7 7 6 3 4 3 3 5 5 2 6 9 10 8 7 7 7 7 6 7 7 8 7 7 7 7 6 6 6 6 6 6 6 6 6 5 5 5 5 5 5
4 3 1 7 10 6 2 3 5 3 5 8 8 4 7 7 7 6 6 6 7 6 6 6 7 5 6 7 6 6 6 5 5 5 6 6 7 7 6 5 4 4 4 4
6 4 6 10 11 6 3 5 7 5 5 7 8 6 5 5 6 4 4 4 6 5 5 4 5 6 6 6 5 4 3 4 4 5 4 6 6 5 5 5 4 2 2 1
3 3 5 11 9 4 6 8 6 6 5 5 5 5 5 5 4 4 4 4 5 5 5 4 3 5 5 4 2 2 2 2 2 3 5 5 4 4 4 4 4 4 4 4
3 4 7 9 5 6 5 7 7 6 5 2 4 5 4 4 4 4 4 4 4 5 6 5 3 3 3 3 2 1 1 1 2 3 3 4 4 4 4 4 4 4 4 4
2 6 9 9 7 7 4 5 8 5 3 2 3 4 4 4 4 4 4 4 4 5 6 6 5 3 2 3 3 2 2 2 3 4 4 4 4 4 4 5 5 5 5 5
4 3 8 9 8 9 8 7 7 5 4 2 2 3 4 4 4 4 4 4 4 5 5 6 6 5 5 4 4 3 2 4 4 4 4 5 5 5 5 5 4 4 4 4
1 5 6 9 12 12 11 9 8 7 6 4 2 2 3 3 3 3 4 4 5 6 6 6 6 6 5 5 4 4 2 4 3 3 3 3 4 4 6 4 5 6 6 5
3 4 2 6 14 13 11 10 9 7 6 4 2 1 2 2 3 4 4 5 5 6 6 5 6 6 6 6 5 4 3 4 4 3 3 3 3 3 3 2 2 3 4 5
6 5 5 5 10 11 11 10 9 7 6 4 2 1 1 2 3 4 4 4 5 6 5 6 6 6 6 6 5 3 4 5 2 2 3 3 3 2 2 2 1 1 1 1
8 6 6 7 9 10 9 9 8 7 6 5 3 2 2 2 3 4 4 4 5 5 5 6 5 6 6 6 5 4 4 3 3 3 3 2 2 3 3 3 3 2 2 1
10 8 6 9 10 11 10 10 9 8 7 5 4 3 2 2 2 3 3 3 4 4 4 5 5 6 7 5 3 2 4 5 3 1 1 2 2 3 3 3 3 3 4 3
12 12 10 10 11 12 11 9 8 7 7 6 5 3 2 3 4 2 3 4 4 4 3 4 5 6 8 5 5 0 4 4 0 2 1 2 2 3 3 2 2 3 3 2
11 11 11 10 10 11 11 10 9 7 5 5 5 3 3 4 3 1 2 4 5 3 3 4 5 8 6 4 5 4 1 5 3 2 3 3 2 2 3 3 3 2 2 2
9 10 10 10 10 10 10 9 8 7 6 5 5 4 5 3 2 1 2 3 4 3 3 5 9 8 3 6 6 5 3 2 2 3 4 3 1 1 2 3 3 2 2 1
8 8 9 10 9 8 8 8 8 7 6 6 6 5 4 4 3 2 1 3 3 1 3 5 7 5 5 6 7 6 6 1 2 3 4 4 3 2 2 3 3 2 2 2
6 8 8 8 8 8 7 7 7 7 6 6 5 5 4 4 3 2 2 2 1 4 3 7 4 3 4 6 7 5 6 4 2 3 3 3 3 3 2 3 3 3 2 2
6 7 8 8 8 8 7 7 8 8 7 7 6 5 5 4 4 4 4 4 2 3 1 4 2 3 5 7 5 5 6 4 2 3 3 3 3 3 3 3 4 3 3 2
6 7 8 9 9 9 9 8 8 8 8 8 7 6 6 5 4 3 3 2 3 5 1 3 2 5 8 6 6 6 6 5 3 3 4 4 3 3 3 4 4 4 4 3
5 5 7 8 9 9 10 9 7 6 7 7 7 7 6 4 4 4 4 4 6 5 3 4 6 8 9 6 6 6 5 4 3 3 3 3 3 3 3 3 4 5 4 5
7 5 4 6 7 6 7 8 8 7 6 5 6 7 6 5 4 4 3 4 8 7 4 5 7 9 7 7 5 4 4 3 1 1 1 2 3 3 3 3 5 5 5 4
5 4 4 3 2 2 3 4 5 6 6 5 5 5 5 5 5 4 3 3 5 6 5 4 5 6 5 4 4 4 4 3 2 2 2 2 2 3 4 4 5 5 5 5
7 3 1 2 3 2 2 2 3 5 6 6 6 5 5 5 5 5 6 5 5 5 5 5 5 4 3 3 3 4 4 4 3 2 2 3 3 2 3 5 4 4 4 5
Wind_Direction
92 88 68 61 56 57 60 61 63 44 24 9 18 2 352 355 7 21 27 27 27 27 29 34 41 48 44 36 33 40 44 41 34 30 28 22 10 359 360 5 11 16 16 28
128 125 99 88 77 71 64 50 49 52 39 14 43 32 16 14 18 26 28 26 23 26 23 32 39 47 50 46 40 39 40 39 35 35 34 34 34 30 33 31 26 30 41 47
146 149 219 126 108 87 68 52 31 33 14 5 39 40 27 17 18 24 24 24 15 25 16 16 48 56 56 56 51 44 41 40 35 34 33 29 30 33 44 46 41 45 49 52
173 178 49 100 121 127 122 114 86 23 1 12 76 91 56 32 24 21 18 18 8 25 29 12 22 55 67 56 51 43 34 32 41 35 29 26 30 36 38 53 59 52 44 43
312 84 123 151 168 183 216 116 123 46 23 8 143 121 61 36 31 30 19 9 358 20 30 11 3 19 57 58 50 43 37 30 28 33 29 23 23 30 30 34 58 63 41 28
292 272 88 134 141 154 234 175 137 70 35 20 30 59 40 28 30 31 25 5 353 8 24 5 349 2 53 59 53 37 26 30 25 22 25 25 23 21 18 17 34 82 59 32
279 292 97 118 129 157 241 116 122 88 50 42 45 41 30 27 30 23 32 12 352 355 2 356 360 15 46 53 59 63 41 34 25 11 24 43 31 23 16 6 358 38 101 77
266 271 130 142 155 188 101 115 121 100 71 56 55 48 38 40 32 13 18 22 356 344 333 323 10 19 27 47 47 91 110 87 71 51 31 42 43 34 20 0 3 21 36 35
351 58 112 156 153 111 134 140 122 106 99 86 64 53 39 49 41 12 10 23 355 329 320 328 3 15 8 27 357 358 96 123 123 114 85 53 38 39 31 21 24 30 24 23
266 171 162 180 155 141 167 126 116 123 131 90 58 47 32 48 38 12 6 5 345 338 345 338 330 335 44 37 353 357 63 69 91 91 93 84 54 45 43 27 21 23 20 14
239 169 153 178 183 169 172 157 144 152 141 100 54 39 21 38 27 360 352 354 357 352 337 332 348 10 44 29 351 338 38 71 78 85 81 95 77 49 54 63 44 21 6 3
238 160 175 184 182 180 174 175 167 167 157 147 109 40 14 22 4 349 353 2 0 346 339 349 1 17 25 1 346 348 46 76 60 75 78 104 123 106 57 70 61 45 36 26
90 115 132 138 166 175 175 179 176 176 165 160 144 99 350 350 352 352 356 13 358 332 330 354 1 16 11 352 348 345 47 77 67 54 61 74 102 135 141 115 52 29 32 45
126 156 150 154 162 169 177 180 176 180 181 181 164 222 300 328 352 354 353 12 346 323 342 1 2 15 3 344 330 339 88 90 93 92 77 76 69 75 96 121 136 162 154 53
166 190 176 166 159 168 176 178 181 191 196 188 176 221 263 315 346 340 341 9 341 334 357 353 3 8 348 332 332 6 61 86 69 77 88 97 99 84 78 74 70 65 70 54
179 193 190 173 172 175 181 187 192 199 195 181 181 211 242 297 310 299 329 2 339 340 344 350 10 358 330 325 336 72 85 66 50 30 102 100 100 102 89 76 70 65 54 30
183 192 197 189 182 183 187 192 195 198 189 180 183 189 235 266 270 300 353 342 323 314 5 16 12 340 318 338 341 301 137 116 89 288 73 70 66 97 110 103 93 88 86 58
198 197 198 198 193 189 190 194 199 200 187 175 156 165 232 254 270 339 328 315 309 313 39 30 3 318 308 28 352 333 147 158 193 159 103 74 40 77 113 122 121 122 140 144
198 198 197 198 199 194 193 193 193 191 180 165 162 198 228 243 250 263 299 307 304 317 25 25 335 312 360 61 5 319 310 134 147 130 126 128 238 196 132 133 136 134 126 120
200 200 199 195 198 197 191 186 184 183 179 172 178 199 217 230 212 203 277 295 284 43 25 356 316 321 14 37 4 322 310 267 159 156 161 174 206 205 164 143 141 135 122 116
210 205 204 199 193 193 190 184 180 178 171 170 184 200 211 222 195 198 230 268 344 64 351 310 301 23 19 344 317 294 287 273 195 186 178 181 195 189 179 154 145 149 147 149
219 215 211 206 195 191 190 192 185 178 172 174 189 204 211 213 213 222 220 208 201 143 272 296 354 29 334 320 290 281 279 273 227 198 182 188 200 192 185 166 152 154 157 160
219 213 212 212 206 200 195 198 197 184 179 181 187 198 206 206 212 222 234 181 147 135 221 288 331 316 315 306 284 276 269 257 234 211 190 184 195 200 189 169 158 157 161 167
279 222 210 209 210 208 204 198 196 183 175 176 185 192 198 201 205 211 223 197 169 168 225 269 279 285 297 287 275 274 276 263 232 218 208 180 177 182 183 167 156 158 166 170
320 296 236 208 213 213 211 196 186 180 176 179 189 194 200 202 202 207 221 191 170 175 221 259 264 267 272 273 281 294 297 300 327 337 229 170 167 179 184 171 163 163 169 174
331 326 332 298 253 227 217 202 187 178 181 187 197 198 198 195 196 196 209 235 223 209 214 239 254 257 260 281 302 301 299 283 221 205 241 254 220 202 186 181 177 169 170 173
319 310 303 305 305 298 287 262 210 190 185 190 199 203 204 201 193 195 202 211 221 214 211 219 231 243 258 276 291 297 299 303 306 276 234 230 229 223 195 182 178 173 169 169